Columbus, OH

11:42 PM EST on February 12, 2016 (GMT -0500)
Rickenbacker International

Weather History for KLCK - February, 2013

Change the Weather History Date:

Monday, February 11, 2013

  Actual Average Record
Temperature  
Mean Temperature 47 °F -  
Max Temperature 54 °F 40 °F 75 °F (1999)
Min Temperature 40 °F 25 °F -7 °F (2014)
Degree Days  
Heating Degree Days 18    
Moisture  
Dew Point 34 °F    
Average Humidity 61    
Maximum Humidity 86    
Minimum Humidity 36    
Precipitation  
Precipitation 0.00 in - - ()
Sea Level Pressure  
Sea Level Pressure 29.85 in    
Wind  
Wind Speed 18 mph (SW)    
Max Wind Speed 34 mph    
Max Gust Speed 45 mph    
Visibility 10 miles    
Events Rain    
Averages and records for this station are not official NWS values.
T = Trace of Precipitation, MM = Missing Value Source: NWS Daily Summary

Daily Weather History Graph

Daily Weather History Graph

Search for Another Location

Airport or City:

Trip Planner

Search our weather history database for the weather conditions in past years. The results will help you decide how hot, cold, wet, or windy it might be!

Date:

Astronomy

Feb. 11, 2013 Rise Set
Actual Time 7:28 AM EST 6:03 PM EST
Civil Twilight 7:01 AM EST 6:31 PM EST
Nautical Twilight 6:29 AM EST 7:03 PM EST
Astronomical Twilight 5:57 AM EST 7:34 PM EST
Moon 7:53 AM EST (2/11) 7:58 PM EST (2/11)
Length of Visible Light 11h 30m
Length of Day
10h 34m
Waxing Crescent, 3% of the Moon is Illuminated
Feb 11
Waxing Crescent
Feb 17
First Quarter
Feb 25
Full
Mar 4
Last Quarter
Mar 11
New

Hourly Weather History & Observations

Time (EST) Temp. Windchill Dew Point Humidity Pressure Visibility Wind Dir Wind Speed Gust Speed Precip Events Conditions
12:15 AM 48.2 °F - 39.9 °F 73% 29.83 in 10.0 mi South 16.1 mph 21.9 mph N/A   Overcast
12:35 AM 48.0 °F - 40.1 °F 74% 29.81 in 10.0 mi South 16.1 mph - N/A   Overcast
12:55 AM 48.0 °F - 40.3 °F 75% 29.81 in 10.0 mi South 18.4 mph 23.0 mph N/A   Overcast
1:15 AM 47.8 °F - 40.5 °F 76% 29.80 in 10.0 mi South 16.1 mph 20.7 mph N/A   Light Drizzle
1:35 AM 47.5 °F - 40.8 °F 78% 29.80 in 7.0 mi South 15.0 mph - N/A Rain Light Rain
1:55 AM 47.1 °F - 41.4 °F 80% 29.81 in 10.0 mi South 13.8 mph 20.7 mph N/A Rain Light Rain
2:15 AM 46.6 °F - 41.7 °F 83% 29.81 in 10.0 mi South 15.0 mph - N/A   Light Drizzle
2:35 AM 46.4 °F 40.1 °F 41.9 °F 84% 29.81 in 10.0 mi South 15.0 mph - N/A   Overcast
2:55 AM 46.4 °F 40.1 °F 41.9 °F 84% 29.80 in 10.0 mi South 15.0 mph 19.6 mph N/A   Overcast
3:15 AM 46.6 °F - 42.1 °F 84% 29.79 in 10.0 mi South 13.8 mph - N/A   Overcast
3:35 AM 46.8 °F - 42.1 °F 84% 29.78 in 10.0 mi South 11.5 mph - N/A   Overcast
3:55 AM 46.9 °F - 42.4 °F 84% 29.78 in 10.0 mi South 12.7 mph - N/A   Overcast
4:15 AM 47.3 °F - 42.8 °F 84% 29.78 in 10.0 mi South 10.4 mph - N/A   Overcast
4:35 AM 47.3 °F - 42.8 °F 84% 29.78 in 10.0 mi South 10.4 mph - N/A   Overcast
4:55 AM 47.3 °F - 42.8 °F 84% 29.78 in 10.0 mi South 11.5 mph - N/A   Overcast
5:15 AM 46.8 °F - 42.6 °F 85% 29.77 in 10.0 mi South 13.8 mph - N/A   Scattered Clouds
5:35 AM 48.2 °F - 43.5 °F 84% 29.76 in 10.0 mi South 13.8 mph - N/A   Clear
5:55 AM 48.2 °F - 43.5 °F 84% 29.76 in 10.0 mi South 13.8 mph - N/A   Clear
6:15 AM 46.9 °F - 42.8 °F 86% 29.75 in 10.0 mi South 11.5 mph - N/A   Clear
6:55 AM 48.6 °F - 44.1 °F 84% 29.76 in 10.0 mi SSW 16.1 mph 19.6 mph N/A   Mostly Cloudy
7:15 AM 49.5 °F - 44.6 °F 83% 29.76 in 10.0 mi SSW 17.3 mph 21.9 mph N/A   Scattered Clouds
7:35 AM 49.3 °F - 44.2 °F 83% 29.76 in 10.0 mi SSW 15.0 mph - N/A   Scattered Clouds
7:55 AM 49.3 °F - 43.9 °F 82% 29.77 in 10.0 mi SW 15.0 mph 21.9 mph N/A   Scattered Clouds
8:15 AM 50.2 °F - 43.9 °F 79% 29.77 in 10.0 mi SW 15.0 mph 23.0 mph N/A   Scattered Clouds
8:35 AM 51.8 °F - 44.1 °F 75% 29.77 in 10.0 mi SW 17.3 mph 27.6 mph N/A   Scattered Clouds
8:55 AM 53.1 °F - 43.3 °F 70% 29.77 in 10.0 mi SW 24.2 mph 31.1 mph N/A   Scattered Clouds
9:15 AM 53.6 °F - 41.5 °F 64% 29.77 in 10.0 mi SW 21.9 mph 29.9 mph N/A   Clear
9:35 AM 54.3 °F - 40.6 °F 60% 29.78 in 10.0 mi SW 28.8 mph 40.3 mph N/A   Scattered Clouds
9:55 AM 54.5 °F - 36.9 °F 51% 29.78 in 10.0 mi WSW 28.8 mph 40.3 mph N/A   Scattered Clouds
10:15 AM 54.3 °F - 35.8 °F 50% 29.78 in 10.0 mi SW 23.0 mph 36.8 mph N/A   Clear
10:35 AM 53.8 °F - 34.9 °F 49% 29.78 in 10.0 mi WSW 28.8 mph 40.3 mph N/A   Clear
10:55 AM 54.5 °F - 32.4 °F 43% 29.78 in 10.0 mi WSW 34.5 mph 43.7 mph N/A   Clear
11:15 AM 54.9 °F - 31.1 °F 40% 29.79 in 10.0 mi WSW 29.9 mph 38.0 mph N/A   Clear
11:35 AM 54.9 °F - 31.8 °F 42% 29.81 in 10.0 mi West 27.6 mph 34.5 mph N/A   Scattered Clouds
11:55 AM 54.7 °F - 31.1 °F 41% 29.81 in 10.0 mi WSW 27.6 mph 36.8 mph N/A   Scattered Clouds
12:15 PM 54.9 °F - 29.7 °F 38% 29.82 in 10.0 mi WSW 27.6 mph 38.0 mph N/A   Mostly Cloudy
12:35 PM 53.4 °F - 27.0 °F 36% 29.82 in 10.0 mi WSW 31.1 mph 44.9 mph N/A   Scattered Clouds
12:55 PM 52.3 °F - 26.4 °F 37% 29.81 in 10.0 mi WSW 29.9 mph 38.0 mph N/A   Clear
1:15 PM 52.2 °F - 27.7 °F 39% 29.82 in 10.0 mi West 23.0 mph 36.8 mph N/A   Clear
1:35 PM 52.2 °F - 28.6 °F 40% 29.82 in 10.0 mi West 28.8 mph 33.4 mph N/A   Scattered Clouds
1:55 PM 50.9 °F - 28.6 °F 42% 29.83 in 10.0 mi West 27.6 mph 38.0 mph N/A   Mostly Cloudy
2:15 PM 49.8 °F - 28.2 °F 43% 29.84 in 10.0 mi West 29.9 mph 40.3 mph N/A   Mostly Cloudy
2:35 PM 50.0 °F - 27.1 °F 41% 29.85 in 10.0 mi West 29.9 mph 36.8 mph N/A   Scattered Clouds
2:55 PM 49.6 °F - 26.2 °F 40% 29.85 in 10.0 mi West 27.6 mph 33.4 mph N/A   Clear
3:15 PM 49.3 °F - 25.9 °F 40% 29.86 in 10.0 mi West 24.2 mph 38.0 mph N/A   Clear
3:35 PM 49.3 °F - 26.6 °F 41% 29.86 in 10.0 mi West 28.8 mph 32.2 mph N/A   Clear
3:55 PM 49.1 °F - 26.8 °F 42% 29.86 in 10.0 mi West 24.2 mph 36.8 mph N/A   Scattered Clouds
4:15 PM 48.9 °F - 26.2 °F 41% 29.87 in 10.0 mi West 27.6 mph 33.4 mph N/A   Mostly Cloudy
4:35 PM 48.7 °F - 26.2 °F 42% 29.87 in 10.0 mi West 24.2 mph 33.4 mph N/A   Overcast
4:55 PM 48.0 °F - 26.6 °F 43% 29.88 in 10.0 mi West 20.7 mph 28.8 mph N/A   Overcast
5:55 PM 45.5 °F 39.6 °F 26.4 °F 47% 29.90 in 10.0 mi West 12.7 mph - N/A   Mostly Cloudy
6:15 PM 44.6 °F 37.8 °F 26.6 °F 49% 29.91 in 10.0 mi West 15.0 mph 21.9 mph N/A   Mostly Cloudy
6:35 PM 43.9 °F 36.8 °F 26.8 °F 51% 29.92 in 10.0 mi WNW 15.0 mph 20.7 mph N/A   Mostly Cloudy
6:55 PM 42.4 °F 34.7 °F 27.0 °F 54% 29.93 in 10.0 mi West 16.1 mph - N/A   Scattered Clouds
7:15 PM 42.1 °F 33.9 °F 27.3 °F 56% 29.94 in 10.0 mi West 17.3 mph 20.7 mph N/A   Mostly Cloudy
7:35 PM 42.1 °F 33.9 °F 27.3 °F 56% 29.95 in 10.0 mi West 17.3 mph 27.6 mph N/A   Overcast
7:55 PM 41.5 °F 34.2 °F 27.3 °F 57% 29.96 in 10.0 mi West 13.8 mph 20.7 mph N/A   Overcast
8:15 PM 41.4 °F 34.7 °F 26.8 °F 56% 29.97 in 10.0 mi West 11.5 mph 18.4 mph N/A   Overcast
8:35 PM 41.0 °F 34.7 °F 26.6 °F 57% 29.97 in 10.0 mi West 10.4 mph - N/A   Overcast
8:55 PM 40.6 °F 34.8 °F 26.4 °F 57% 29.97 in 10.0 mi West 9.2 mph - N/A   Overcast
9:15 PM 40.6 °F 33.8 °F 26.4 °F 57% 29.98 in 10.0 mi West 11.5 mph 18.4 mph N/A   Overcast
9:35 PM 41.0 °F 34.3 °F 26.4 °F 56% 29.98 in 10.0 mi West 11.5 mph - N/A   Overcast
9:55 PM 40.6 °F 34.8 °F 27.0 °F 58% 29.99 in 10.0 mi WSW 9.2 mph - N/A   Overcast
10:15 PM 40.6 °F 34.8 °F 27.1 °F 59% 29.99 in 10.0 mi West 9.2 mph - N/A   Overcast
10:35 PM 40.6 °F 34.3 °F 27.3 °F 59% 30.00 in 10.0 mi West 10.4 mph - N/A   Overcast
11:15 PM 41.0 °F 34.3 °F 26.1 °F 55% 30.00 in 10.0 mi West 11.5 mph 21.9 mph N/A   Overcast
11:35 PM 41.0 °F 33.5 °F 26.2 °F 56% 30.00 in 10.0 mi West 13.8 mph 18.4 mph N/A   Overcast
11:55 PM 40.8 °F 33.3 °F 26.1 °F 56% 30.01 in 10.0 mi West 13.8 mph 18.4 mph N/A   Overcast